This is the latest recevied weather packets stored in our database for station/object DB0RV-13. If no packets are shown the sender has not sent any weather packets the latest 10 day(s).
| Time | Temp. | Humidity | Pressure | Rain* | Wind** | Luminosity | Snow |
|---|---|---|---|---|---|---|---|
| 1777899302 | 21.67° C | 35% | 1011.5 hPa | - | - | - | - |
| 1777899001 | 21.67° C | 37% | 1011.6 hPa | - | - | - | - |
| 1777898702 | 21.11° C | 37% | 1011.6 hPa | - | - | - | - |
| 1777898402 | 21.67° C | 37% | 1011.6 hPa | - | - | - | - |
| 1777898102 | 22.22° C | 37% | 1011.7 hPa | - | - | - | - |
| 1777897802 | 21.67° C | 36% | 1011.8 hPa | - | - | - | - |
| 1777897502 | 21.11° C | 36% | 1011.7 hPa | - | - | - | - |
| 1777897202 | 21.11° C | 36% | 1011.8 hPa | - | - | - | - |
| 1777896901 | 21.11° C | 37% | 1011.8 hPa | - | - | - | - |
| 1777896602 | 20.56° C | 39% | 1011.8 hPa | - | - | - | - |
| 1777896302 | 21.11° C | 40% | 1011.9 hPa | - | - | - | - |
| 1777896002 | 21.11° C | 39% | 1011.9 hPa | - | - | - | - |
| 1777895702 | 20.56° C | 39% | 1011.9 hPa | - | - | - | - |
| 1777895402 | 20.56° C | 41% | 1011.8 hPa | - | - | - | - |
| 1777895102 | 20.56° C | 40% | 1012.1 hPa | - | - | - | - |
| 1777894801 | 20° C | 40% | 1012.1 hPa | - | - | - | - |
| 1777894502 | 20° C | 41% | 1012.1 hPa | - | - | - | - |
| 1777894201 | 20° C | 41% | 1012.2 hPa | - | - | - | - |
| 1777893902 | 20° C | 40% | 1012.3 hPa | - | - | - | - |
| 1777893601 | 20.56° C | 41% | 1012.3 hPa | - | - | - | - |
| 1777893302 | 20° C | 40% | 1012.3 hPa | - | - | - | - |
| 1777893001 | 20° C | 41% | 1012.4 hPa | - | - | - | - |
| 1777892703 | 20° C | 41% | 1012.6 hPa | - | - | - | - |
| 1777892401 | 20° C | 43% | 1012.5 hPa | - | - | - | - |
| 1777892102 | 20° C | 42% | 1012.5 hPa | - | - | - | - |
* Rain since midnight (hover to see other rain measurements)
** Current wind speed in m/s (hover to see current wind gust speed)